Regional Weather Roundup
Issued by NWS Wilmington, NC

Home | Current Version | Previous Version | Text Only | Print | Product List | Glossary On
Versions: 1 2 3 4 5 6 7 8 9 10 11 12 13 14 15 16 17 18 19 20 21 22 23 24 25 26 27 28 29 30 31 32 33 34 35 36 37 38 39 40 41 42 43 44 45 46 47 48 49 50
000
ASUS42 KILM 232210
RWRILM
RWRILM
REGIONAL HOURLY WEATHER ROUNDUP
NATIONAL WEATHER SERVICE WILMINGTON NC
500 PM EST SUN NOV 23 2014

NOTE: "FAIR" INDICATES FEW OR NO CLOUDS BELOW 12,000 FEET WITH NO
SIGNIFICANT WEATHER AND/OR OBSTRUCTIONS TO VISIBILITY.

...............WFO WILMINGTON COUNTY WARNING AREA...............

......COASTAL NC AND SC COUNTIES......

CITY           SKY/WX    TMP DP  RH WIND       PRES   REMARKS
WILMINGTON     CLOUDY    65  63  93 SE12      29.98F
SOUTHPORT      CLOUDY    64  61  92 SE8       29.95F FOG
N MYRTLE BEACH RAIN      64  62  93 E7        29.94F FOG
MYRTLE BEACH   LGT RAIN  64  61  88 SE14      29.93F FOG

......INLAND NC AND SC COUNTIES.......

CITY           SKY/WX    TMP DP  RH WIND       PRES   REMARKS
LUMBERTON      CLOUDY    64  62  93 SE12      29.93F
ELIZABETHTOWN  LGT RAIN  64  64 100 SE6       29.97F
WHITEVILLE     LGT RAIN  64  63  94 SE9G18    29.95F
FLORENCE       LGT RAIN  65  62  90 SE16      29.90F FOG
DARLINGTON     CLOUDY    64  61  88 SE15      29.90F

....................REST OF NORTH CAROLINA......................

.........EASTERN NC.........

CITY           SKY/WX    TMP DP  RH WIND       PRES   REMARKS
CAPE HATTERAS  LGT RAIN  63  58  83 SE20G28   30.08F
JACKSONVILLE   CLOUDY    63  57  82 E6        30.01F
MOREHEAD CITY  CLOUDY    64  61  90 SE15G25   30.02F
KENANSVILLE    CLOUDY    60  58  92 E3        30.02F
NEW BERN       CLOUDY    63  59  87 SE7       30.04F
ELIZABETH CITY LGT RAIN  58  53  84 E7        30.08F

.........CENTRAL NC.........

CITY           SKY/WX    TMP DP  RH WIND       PRES   REMARKS
RALEIGH DURHAM LGT RAIN  56  52  86 E9        30.00F
ROCKY MOUNT    LGT RAIN  56  55  97 NE5       30.02F FOG
ROANOKE RAPIDS NOT AVBL
FAYETTEVILLE   LGT RAIN  62  60  93 E9        29.96F
HOFFMAN        RAIN      58  58  99 SE6       29.95F FOG

.........WESTERN NC.........

CITY           SKY/WX    TMP DP  RH WIND       PRES   REMARKS
CHARLOTTE      LGT RAIN  55  52  89 E14       29.87F FOG
GREENSBORO     LGT RAIN  52  52 100 E10       29.93F FOG
HICKORY        NOT AVBL
BOONE          NOT AVBL
ASHEVILLE      NOT AVBL

.....................REST OF SOUTH CAROLINA.....................

.........EASTERN SC.........

CITY           SKY/WX    TMP DP  RH WIND       PRES   REMARKS
CHARLESTON     LGT RAIN  67  65  93 E9        29.87F FOG
BEAUFORT MCAS  CLOUDY    67  66  97 SE5       29.85F
HILTON HEAD    CLOUDY    68  68 100 E3        29.85F FOG

.........CENTRAL SC.........

CITY           SKY/WX    TMP DP  RH WIND       PRES   REMARKS
COLUMBIA       LGT RAIN  64  62  93 SE13      29.84F FOG
ORANGEBURG     LGT RAIN  66  63  90 SE10      29.86F FOG
SUMTER SHAW    LGT RAIN  64  64 100 SE9       29.86F

.........WESTERN SC.........

CITY           SKY/WX    TMP DP  RH WIND       PRES   REMARKS
GREENVILLE     NOT AVBL
ROCK HILL      LGT RAIN  54  53  97 E7G17     29.86F FOG
ANDERSON       LGT RAIN  49  48  97 NE7       29.81F FOG
CLEMSON        NOT AVBL
GREENWOOD      LGT RAIN  54  53  97 CALM      29.82F


...................COASTAL AND OFFSHORE REPORTS..................

................LOCAL PIERS AND NC RESERVE................


STATION/POSITION TIME  SKY/WX   TEMP    WIND        PRES    VSBY
                                AIR SEA DIR/SP/G
                 (UTC)          (F)     (DEG/KT/KT) (MB)    (MI)
JOHNY MRCER PIER 2200            64 60  140/ 17/ 20 1014.7S
NC RESRV MASNBRO 2100            63     140/  6     1016.0S
OCEAN CREST PIER 2200            63 57   80/ 13/ 14 1013.9F
SPRINGMAID  PIER 2200            62 56  130/  8/ 10 1014.0S


................COASTAL AND OFFSHORE BUOYS................


STATION/POSITION TIME  SKY/WX   TEMP    WIND        PRES    VSBY
                                AIR SEA DIR/SP/G
                 (UTC)          (F)     (DEG/KT/KT) (MB)    (MI)
DIMNDSHOAL 41025 2200            70     150/ 21/ 27 1018.5F
WVE H/P(F/S)=  6/ 5 WND WVE H/P(F/S)=  5/ 5 SWL H/P/D(F/S/D)=  2/110/ 9

CAPE LOOKOUT     2100            65     130/ 23/ 26 1017.2F
ONSLOW BAY 41036 2200            69 69  140/ 29/ 35 1014.3F
WVE H/P(F/S)=  9/ 7 WND WVE H/P(F/S)= 10/ 7

5 WRITEBCH 41038 2100            62 60  150/ 21/ 25 1015.4F
MASONBORO  41110 2200               60                N/A
WVE H/P(F/S)=  8/ 7 WND WVE H/P(F/S)=  8/ 7

WILM HARBR 41108 2200               61                N/A
WVE H/P(F/S)=  9/ 7 WND WVE H/P(F/S)= 10/ 7

27WRITEBCH 41037 2100            65 67  150/ 27/ 35 1015.8F
FRYING PAN 41013 2200            68 67  130/ 25/ 31 1014.3R
WVE H/P(F/S)= 12/ 8 WND WVE H/P(F/S)= 11/ 8

SUNST NRSH 41024 2100            61     120/ 14/ 16 1014.5F
CAPRS NRSH 41029 2100            64     110/ 14/ 17   N/A
EDISTO     41004 2200            71 75  110/ 27/ 35 1011.4R
WVE H/P(F/S)= 13/ 8 WND WVE H/P(F/S)= 13/ 8 SWL H/P/D(F/S/D)=  2/17



..........OFFSHORE BUOYS BEYOND 100 NM OFFSHORE...........
.....IN A TRIANGLE---HAT TO BERMUDA TO BAHAMAS TO HAT.....


STATION/POSITION TIME  SKY/WX   TEMP    WIND        PRES    VSBY
                                AIR SEA DIR/SP/G
                 (UTC)          (F)     (DEG/KT/KT) (MB)    (MI)
150E HAT   41001 NOT AVBL
W BERMUDA  41048 2109            71 75  110/ 12/ 16 1024.5F
WVE H/P(F/S)=  4/ 8 WND WVE H/P(F/S)=  3/ 6 SWL H/P/D(F/S/D)=  3/ 50/ 8

ATLANTIC S 41049 2145            78 79   80/ 17/ 21 1023.0S
WVE H/P(F/S)=  8/10 WND WVE H/P(F/S)=  7/ 7 SWL H/P/D(F/S/D)=  5/ 10/10

E BAHAMAS  41046 2118            80 81  100/ 19/ 23 1017.9S
WVE H/P(F/S)= 10/ 8 WND WVE H/P(F/S)=  7/ 8 SWL H/P/D(F/S/D)=  7/ 20/10

NE BAHAMAS 41047 2059            78 78  110/ 19/ 23 1019.7R
WVE H/P(F/S)=  9/ 9 WND WVE H/P(F/S)=  7/ 6 SWL H/P/D(F/S/D)=  5/ 80/ 9

120E CANVRL41010 2200            79 78  150/ 19/ 23 1014.1S
WVE H/P(F/S)=  9/10 WND WVE H/P(F/S)=  8/ 8 SWL H/P/D(F/S/D)=  5/130/10


END



USA.gov is the U.S. government's official web portal to all federal, state and local government web resources and services.